Location: Stuttgart
(48.8069°N, 9.1544°E)
Time: 08:31:43
(UTC+01:00)

ISS - Pass Details

Date: 11 January 2018
Orbit: 402 x 407 km, 51.6° (Epoch: 24 January)

Event Time Altitude Azimuth Distance (km) Brightness Sun altitude
Exits shadow 07:13:29 13° 276° (W) 1,287 -1.9 -9.6°
Maximum altitude 07:16:00 34° 214° (SSW) 699 -2.7 -9.3°
Drops below altitude 10° 07:19:00 10° 148° (SSE) 1,464 -0.1 -8.8°
Sets 07:21:11 0° 138° (SE) 2,322 1.4 -8.5°
